Location: Unspecified
(58.7730°N, 5.8460°E)
Time: 23:04:21
(UTC+02:00)

CZ-3 Stage 3 - Visible Passes

Search period start: 24 April 2017 00:00
Search period end: 04 May 2017 00:00
Orbit: 397 x 34802 km, 30.7° (Epoch: 22 April)

Date Brightness Start Highest point End Pass type
(mag) Time Alt. Az. Time Alt. Az. Time Alt. Az.
24 Apr 7.7 18:21:02 10° S 23:07:35 41° SE 03:10:08 10° SSE visible
25 Apr 8.1 16:34:04 10° ENE 20:36:42 14° E 22:21:08 10° E visible
26 Apr 9.0 01:35:57 10° W 03:17:32 33° WSW 07:43:23 10° W visible
26 Apr 8.3 21:46:27 10° WSW 23:34:45 54° S 06:22:52 10° SW daylight
27 Apr 7.7 18:11:36 10° S 22:54:22 40° SE 02:59:37 10° SSE visible
28 Apr 8.1 16:42:23 10° ENE 20:26:20 14° E 22:06:22 10° E visible
29 Apr 9.0 01:26:26 10° W 03:06:14 33° WSW 07:28:47 10° W visible
29 Apr 8.3 21:37:06 10° WSW 23:21:28 54° S 06:11:08 10° SW daylight
30 Apr 7.7 18:02:09 10° S 22:41:00 40° SE 02:48:59 10° SSE visible
01 May 8.1 16:57:21 10° ENE 20:15:58 13° E 21:50:49 10° E visible
02 May 9.0 01:16:53 10° W 02:54:54 33° WSW 07:14:08 10° W visible
02 May 8.4 21:27:43 10° WSW 23:08:17 54° S 05:59:13 10° SW daylight
